Погода в Комсомольске

Россия / Томская область     57°24′31″N   86°01′15″E
темп.,
°C
ветер,
м/с
пор.,
м/с
влажн.,
%
обл.,
%
осадки,
мм/ч
давл.,
гПа
погр.,
м
14 мая, пт
пт1401:00+9сз258594 0.0 1014158
04:00+6зсз310850 0.0 1015253
07:00+7сз4107944 0.0 1016597
10:00+8ссз47685 0.1 10181132
13:00+12сз583124 0.1 10191592
16:00+13сз582853 0.0 10191795
19:00+12зсз3733100 0.0 10191694
22:00+9зсз5114659 0.0 1020547
15 мая, сб
сб1501:00+8ююз2663100 0.0 1019219
04:00+10юз5144797 0.0 1016525
07:00+11зюз5155688 0.2 1015661
10:00+14зюз51058100 0.1 1015728
13:00+13з31081100 0.5 1015603
16:00+20з4754100 0.1 10131350
19:00+14ссз4997100 8.5 1012385
22:00+13сз2499100 3.5 1013238
16 мая, вс
вс1601:00+10св3696100 4.8 1014253
04:00+10всв2596100 0.1 1014262
07:00+10в259350 0.1 1013275
10:00+11в3693100 0.6 1011507
13:00+8всв3897100 14.8 1011326
16:00+9св2393100 1.6 1013442
19:00+9ссв2491100 1.6 1013385
22:00+7ссв1295100 0.0 101475
17 мая, пн
пн1701:00+7ссв119288 0.0 101428
04:00+7ююв0092100 0.0 101318
07:00+7ссз1294100 0.1 101489
10:00+7св1294100 1.0 1013155
13:00+7св1193100 2.4 1014162
16:00+8сз1292100 0.1 1014173
19:00+11сз247644 0.1 1014754
22:00+9сз1189100 0.0 101422
18 мая, вт
вт1801:00+7всв1194100 0.0 101213
04:00+7вюв2496100 0.1 1010115
07:00+6всв4898100 7.6 1008319
10:00+6всв3797100 8.9 1009430
13:00+8всв3689100 9.4 1010649
16:00+10вюв137358 0.1 1011857
19:00+12зюз115860 0.1 1010415
22:00+7ссв2775100 0.0 1011161